"Pseudo-MPEC" for C4264Z1

Created 2023 Nov 22 11:22:08 UT using Find_Orb

Click here for an explanation of pseudo-MPECs

 
 Astrometry: 
     C4264Z1*1C2023 11 21.37387804 33 57.294+09 08 10.03   ~BL9q       VNEOCP703
     C4264Z1 1C2023 11 21.38311804 33 03.100+09 09 38.48   ~BL9q 18.68GVNEOCP703
     C4264Z1 1C2023 11 21.38829004 32 33.148+09 10 26.00   ~BL9qx18.70GVNEOCP703
     C4264Z1 1C2023 11 21.39851504 31 36.880+09 11 56.83   ~BLA7 17.96GVNEOCP703
     C4264Z1 1C2023 11 21.39869604 31 35.893+09 11 58.38   ~BLA7 17.85GVNEOCP703
     C4264Z1 1C2023 11 21.39887604 31 34.900+09 11 59.10   ~BLA7 17.74GVNEOCP703
     C4264Z1 1C2023 11 21.39905604 31 33.964+09 12 01.80   ~BLA7 17.99GVNEOCP703
     C4264Z1 1C2023 11 21.47167404 25 50.416+09 20 47.72   ~BLBb 18.35GVNEOCP703
     C4264Z1 1C2023 11 21.47185504 25 49.660+09 20 49.24   ~BLBb 17.98GVNEOCP703
     C4264Z1 1C2023 11 21.47203504 25 48.968+09 20 50.75   ~BLBb 17.99GVNEOCP703
     C4264Z1 1C2023 11 21.47221504 25 48.198+09 20 51.54   ~BLBb 18.16GVNEOCP703
     C4264Z1 KC2023 11 21+01S0\uAstrometrydYS'ZGc!%+)([o(\%P:)[%nh5**d*nD0HKD474
     C4264Z1 KC2023 11 21I4=JmH-P^#2t\b4ewm3f)=pmH?72AWj+toxB(Y;T;#iZ!6mA?17g474
     C4264Z1 KC2023 11 2130XEQOvZPkredacted;2sG;S[0.v3Q1hgX/aC!N01`V=529oc^\6474
     C4264Z1 KC2023 11 21_QC@a+qN6(=X:?8[clickGHGhere-XdwkWF.o(xT3uut'lI=N@uh474
     C4264Z1 KC2023 11 21n\o))#amT,$ns)lMphkInnfBhehdEJZforN-76kvXkkQN]YE%[6N900
     C4264Z1 KC2023 11 21*^oLeEnOks/sFc[k`9]QEehX0nmvw^kXdV#3`H,oB2p_maE-xP,d900
     C4264Z1 KC2023 11 21sdNgWO=/g/g,?D?%mKOi7EN+`tl9$xWwb+s4\(Eobd:'Da,sPCr$900
     C4264Z1 KC2023 11 21N2R@%Wr\T4BM.V/62T`trT!;-ik+;oYNTSYLjga2:IhI_!Wyu*SQ204
     C4264Z1 KC2023 11 21H8j9C+cW3e1gx71eRC!e);f;:EHmEp_id)u'`blK)Db:/o]iJIM?204
     C4264Z1 KC2023 11 22iB4_g\,2,lVpuQw[9C`CgH7QqutBx!;ACO'013w%ShT^fiQcON+R204
     C4264Z1 KC2023 11 22f6I;0E9faZ/6;tOKt.Xbcp(R!F(PQZpg]1Q)$=D8'4TU6)078MT.H21
     C4264Z1 KC2023 11 22/-cU59,I/M,t%ixv37#HEX8N8#?PPt89[oJoUsY)YSbI,^6wb8BtH21
     C4264Z1 KC2023 11 22QJ3TC=^q0QexplanationRfF[VOn_cG2.__G;[Bl+/NL8F\iRH6/H21
     C4264Z1 KC2023 11 22^F^R+G.,3pkjUm+6iQAxQJJiJa2/H1GnJTSKb99Y_)4,h%u?sJJwH21
     C4264Z1 KC2023 11 229N^KQHNovf#*8fwQy\4ghlcAm6kq4^rcQ@kmjB4mL3IW2`E(GlFBH21

Station data:
(204) Schiaparelli Observatory  (N45.867930 E8.770800)  Italy.  Observer L.
   Buzzi. 0.60-m f/4.64 Newtonian + CCD0.84-m f/3.5 reflector + CCD.
(474) Mount John Observatory, Lake Tekapo  (S43.987385 E170.464960)  New
   Zealand.  Observers A. C. Gilmore, P. M. Kilmartin. Measurer P. M.
   Kilmartin. 1.0-m f/7.7 reflector + CCD.
(703) Catalina Sky Survey  (N32.417003 W110.732640)  US/Arizona.  Observer E.
   J. Christensen. 0.68 m Schmidt + 10K CCD.
(900) Moriyama  (N35.049753 E135.989940)  Japan.  Observer Y. Ikari. 0.26-m
   f/7.0 reflector + CCD.
(H21) Astronomical Research Observatory, Westfield  (N39.483054 W87.968270)
   US/Illinois.  Observer R. Holmes. Measurers S. Foglia, L. Buzzi, T.
   Linder, R. Holmes. 0.76-m f/3.0 astrograph + CCD0.81-m f/4.0 astrograph +
   CCD0.61-m f/4.5 astrograph + CCD0.40-m f/5.32 astrograph + CCD.

Orbital elements:  C4264Z1
   Perihelion 2023 Sep 28.81508 +/- 0.00386 TT = 19:33:42 (JD 2460216.31508)
Epoch 2023 Nov 22.0 TT = JDT 2460270.5   Earth MOID: 0.0003   Ve: 0.0543
M  33.75726888 +/- 0.008            (J2000 ecliptic)             AutoNEOCP
n   0.62300117 +/- 0.00012          Peri.   89.46914 +/- 0.0008
a   1.35771976 +/- 0.000174         Node   237.74297 +/- 0.00009
e   0.5266956 +/- 8.68e-5           Incl.    5.01323 +/- 0.0008
P   1.58/577.84d           H 28.92  G  0.15   U  6.7
q 0.64261470 +/- 3.58e-5    Q 2.07282482 +/- 0.000384
25 of 26 observations 2023 Nov. 21-22 (21.9 hr); mean residual 0".42
Residuals in arcseconds: 
231121 703  1.3+  .22+    231121 703  .45+  .52+    231121 204  .00   .32+    
231121 703  1.1+  .16+    231121 703  .03-  .22+    231121 204  .09+  .32+    
231121 703( 5.7-  .04-)   231121 474  .01-  .83+    231122 204  .28-  .24-    
231121 703  .57-  .09+    231121 474  .36-  .12-    231122 H21  .23+  .19-    
231121 703  .64-  .08+    231121 474  .36-  .18-    231122 H21  .17+  .10-    
231121 703  .89-  .76-    231121 474  .02+  .53-    231122 H21  .05-  .15-    
231121 703  .30-  .39+    231121 900  .56+  .54-    231122 H21  .07-  .14+    
231121 703  .04-  .31-    231121 900  .43+  .36-    231122 H21  .16-  .17+    
231121 703  .24-  .11+    231121 900  .29-  .22+    

Ephemerides (geocentric):
Date (UTC) HH   RA             Dec           delta  r     elong  mag " sig PA
---- --------  ------------   ------------  ------ ------ -----  --- --------
2023 11 22 11  04 01 52.375   +10 07 56.87  .01528 1.0028 169.6 20.5 .077 132
2023 11 22 12  04 01 28.085   +10 08 29.18  .01567 1.0032 169.7 20.6 .084 129
2023 11 22 13  04 01 04.985   +10 08 59.86  .01606 1.0035 169.7 20.6 .091 126
2023 11 22 14  04 00 42.990   +10 09 29.04  .01646 1.0039 169.7 20.7 .098 124
2023 11 22 15  04 00 22.023   +10 09 56.83  .01685 1.0043 169.8 20.7 .104 122
2023 11 22 16  04 00 02.014   +10 10 23.33  .01725 1.0047 169.8 20.8 .111 121
2023 11 22 17  03 59 42.898   +10 10 48.63  .01764 1.0051 169.8 20.8 .118 119
2023 11 22 18  03 59 24.617   +10 11 12.83  .01803 1.0054 169.8 20.9 .124 118
2023 11 22 19  03 59 07.118   +10 11 35.98  .01843 1.0058 169.9 20.9 .130 117
2023 11 22 20  03 58 50.352   +10 11 58.17  .01882 1.0062 169.9 20.9 .136 116
2023 11 22 21  03 58 34.274   +10 12 19.46  .01921 1.0066 169.9 21.0 .142 115
2023 11 22 22  03 58 18.843   +10 12 39.90  .01961 1.0070 169.9 21.0 .148 115
2023 11 22 23  03 58 04.020   +10 12 59.55  .02000 1.0073 169.9 21.1 .154 114
2023 11 23 00  03 57 49.770   +10 13 18.46  .02040 1.0077 169.9 21.1 .160 113
2023 11 23 01  03 57 36.061   +10 13 36.67  .02079 1.0081 170.0 21.2 .165 113
2023 11 23 02  03 57 22.864   +10 13 54.22  .02118 1.0085 170.0 21.2 .171 112
2023 11 23 03  03 57 10.148   +10 14 11.16  .02158 1.0089 170.0 21.2 .176 112
2023 11 23 04  03 56 57.890   +10 14 27.52  .02197 1.0092 170.0 21.3 .181 111
2023 11 23 05  03 56 46.065   +10 14 43.33  .02237 1.0096 170.0 21.3 .186 111
2023 11 23 06  03 56 34.650   +10 14 58.62  .02276 1.0100 170.0 21.4 .191 111
2023 11 23 07  03 56 23.625   +10 15 13.43  .02316 1.0104 170.0 21.4 .195 110
2023 11 23 08  03 56 12.969   +10 15 27.77  .02355 1.0108 170.0 21.4 .200 110
2023 11 23 09  03 56 02.666   +10 15 41.67  .02394 1.0111 170.0 21.5 .204 110
2023 11 23 10  03 55 52.697   +10 15 55.16  .02434 1.0115 170.0 21.5 .209 109
2023 11 23 11  03 55 43.047   +10 16 08.25  .02473 1.0119 170.0 21.5 .213 109
2023 11 23 12  03 55 33.701   +10 16 20.98  .02513 1.0123 170.0 21.6 .217 109
2023 11 23 13  03 55 24.644   +10 16 33.34  .02552 1.0127 170.0 21.6 .221 109
2023 11 23 14  03 55 15.865   +10 16 45.37  .02592 1.0130 170.0 21.7 .225 108
2023 11 23 15  03 55 07.349   +10 16 57.08  .02631 1.0134 170.0 21.7 .229 108
2023 11 23 16  03 54 59.086   +10 17 08.49  .02670 1.0138 170.0 21.7 .233 108
2023 11 23 17  03 54 51.064   +10 17 19.60  .02710 1.0142 170.0 21.8 .237 108
2023 11 23 18  03 54 43.274   +10 17 30.44  .02749 1.0146 170.0 21.8 .240 108
2023 11 23 19  03 54 35.705   +10 17 41.01  .02789 1.0149 170.0 21.8 .244 108
2023 11 23 20  03 54 28.348   +10 17 51.33  .02828 1.0153 170.0 21.8 .247 107
2023 11 23 21  03 54 21.195   +10 18 01.42  .02868 1.0157 169.9 21.9 .251 107
2023 11 23 22  03 54 14.237   +10 18 11.27  .02907 1.0161 169.9 21.9 .254 107
2023 11 23 23  03 54 07.466   +10 18 20.90  .02947 1.0165 169.9 21.9 .257 107
2023 11 24 00  03 54 00.875   +10 18 30.33  .02986 1.0168 169.9 22.0 .261 107
2023 11 24 01  03 53 54.458   +10 18 39.55  .03026 1.0172 169.9 22.0 .264 107
2023 11 24 02  03 53 48.206   +10 18 48.58  .03065 1.0176 169.9 22.0 .267 107
2023 11 24 03  03 53 42.115   +10 18 57.43  .03105 1.0180 169.9 22.1 .270 107
2023 11 24 04  03 53 36.178   +10 19 06.10  .03144 1.0184 169.9 22.1 .273 106
2023 11 24 05  03 53 30.388   +10 19 14.60  .03184 1.0187 169.9 22.1 .276 106
2023 11 24 06  03 53 24.742   +10 19 22.94  .03223 1.0191 169.9 22.1 .278 106
2023 11 24 07  03 53 19.234   +10 19 31.13  .03263 1.0195 169.8 22.2 .281 106
2023 11 24 08  03 53 13.858   +10 19 39.17  .03302 1.0199 169.8 22.2 .284 106
2023 11 24 09  03 53 08.611   +10 19 47.07  .03342 1.0203 169.8 22.2 .286 106
2023 11 24 10  03 53 03.487   +10 19 54.82  .03381 1.0206 169.8 22.2 .289 106